EVE0857 MRLB-MROC

Flight info

Callsign EVE0857
Flight time N/A
Altitude 15000
Route PUXAS1V PUXAS
Aircraft A339/H-SADE1E2E3GHIJ3J5M1P2RWXY/LB2D1

Departure

Time 2026-05-05 02:16
Airport Daniel Oduber Quirós International Airport (MRLB)

Arrival

Time N/A
Airport Juan Santamaría International Airport (MROC)
Time Latitude Longitude Altitude Speed Heading
2026-05-05 01:59 10.60053 -85.53406 287 ft 0 kts 340°
2026-05-05 02:08 10.60051 -85.53406 287 ft 1 kts 340°
2026-05-05 02:08 10.60049 -85.53405 288 ft 0 kts 340°
2026-05-05 02:08 10.60050 -85.53405 288 ft 2 kts 340°
2026-05-05 02:09 10.60035 -85.53399 288 ft 2 kts 338°
2026-05-05 02:09 10.60020 -85.53393 293 ft 2 kts 338°
2026-05-05 02:09 10.60004 -85.53387 294 ft 2 kts 338°
2026-05-05 02:09 10.59989 -85.53380 292 ft 2 kts 356°
2026-05-05 02:10 10.59973 -85.53379 293 ft 2 kts 30°
2026-05-05 02:10 10.59959 -85.53389 288 ft 2 kts 45°
2026-05-05 02:10 10.59948 -85.53400 288 ft 2 kts 57°
2026-05-05 02:10 10.59939 -85.53414 293 ft 2 kts 67°
2026-05-05 02:11 10.59935 -85.53423 288 ft 0 kts 72°
2026-05-05 02:14 10.59937 -85.53414 289 ft 3 kts 72°
2026-05-05 02:14 10.59947 -85.53375 286 ft 8 kts 82°
2026-05-05 02:15 10.59906 -85.53335 287 ft 10 kts 158°
2026-05-05 02:15 10.59838 -85.53312 286 ft 0 kts 161°
2026-05-05 02:15 10.59827 -85.53308 286 ft 6 kts 161°
2026-05-05 02:16 10.59748 -85.53327 285 ft 18 kts 227°
2026-05-05 02:16 10.59653 -85.53579 284 ft 79 kts 250°
2026-05-05 02:16 10.59360 -85.54388 292 ft 161 kts 249°
2026-05-05 02:16 10.58928 -85.55517 963 ft 175 kts 246°
2026-05-05 02:17 10.58485 -85.56696 1857 ft 182 kts 249°
2026-05-05 02:17 10.58045 -85.57955 2638 ft 199 kts 250°
2026-05-05 02:17 10.57564 -85.59349 3237 ft 220 kts 250°
2026-05-05 02:17 10.57024 -85.60895 3763 ft 243 kts 250°
2026-05-05 02:18 10.56426 -85.62582 4260 ft 263 kts 250°
2026-05-05 02:18 10.55862 -85.64153 4867 ft 269 kts 249°
2026-05-05 02:18 10.54892 -85.65747 5536 ft 270 kts 224°
2026-05-05 02:18 10.53344 -85.66782 6244 ft 267 kts 197°
2026-05-05 02:19 10.51538 -85.67025 6923 ft 262 kts 171°
2026-05-05 02:19 10.49797 -85.66448 7282 ft 272 kts 146°
2026-05-05 02:19 10.48440 -85.65085 7686 ft 278 kts 120°
2026-05-05 02:19 10.47649 -85.63291 8308 ft 280 kts 107°
2026-05-05 02:20 10.47128 -85.61371 8916 ft 283 kts 102°
2026-05-05 02:20 10.46686 -85.59406 9517 ft 287 kts 102°
2026-05-05 02:20 10.46233 -85.57410 10103 ft 292 kts 103°
2026-05-05 02:20 10.45734 -85.55346 10319 ft 310 kts 103°
2026-05-05 02:21 10.45182 -85.53163 10476 ft 328 kts 104°
2026-05-05 02:21 10.44587 -85.50862 10724 ft 341 kts 104°
2026-05-05 02:21 10.43982 -85.48544 11221 ft 345 kts 104°
2026-05-05 02:21 10.43364 -85.46178 11766 ft 348 kts 104°
2026-05-05 02:22 10.42741 -85.43794 12286 ft 351 kts 104°
2026-05-05 02:22 10.42112 -85.41383 12815 ft 354 kts 104°
2026-05-05 02:22 10.41479 -85.38955 13351 ft 357 kts 104°
2026-05-05 02:22 10.40838 -85.36498 13849 ft 361 kts 104°
2026-05-05 02:23 10.40194 -85.34029 14370 ft 362 kts 104°
2026-05-05 02:23 10.39547 -85.31545 14756 ft 368 kts 104°
2026-05-05 02:23 10.38882 -85.28987 14896 ft 381 kts 104°
2026-05-05 02:23 10.38193 -85.26337 14933 ft 396 kts 104°
2026-05-05 02:24 10.37476 -85.23581 14933 ft 410 kts 104°
2026-05-05 02:24 10.36735 -85.20735 14937 ft 424 kts 104°
2026-05-05 02:24 10.35970 -85.17794 14936 ft 436 kts 104°
2026-05-05 02:24 10.35196 -85.14818 14940 ft 428 kts 104°
2026-05-05 02:25 10.34454 -85.11978 14939 ft 401 kts 104°
2026-05-05 02:25 10.33769 -85.09360 14943 ft 388 kts 104°
2026-05-05 02:25 10.32982 -85.06749 14943 ft 378 kts 112°
2026-05-05 02:25 10.31651 -85.04491 14875 ft 371 kts 125°
2026-05-05 02:26 10.30072 -85.02390 14651 ft 376 kts 127°
2026-05-05 02:26 10.28455 -85.00304 14425 ft 375 kts 127°
2026-05-05 02:26 10.26860 -84.98216 14197 ft 373 kts 126°
2026-05-05 02:26 10.25292 -84.96120 13974 ft 372 kts 126°
2026-05-05 02:27 10.23745 -84.94024 13756 ft 370 kts 126°
2026-05-05 02:27 10.22211 -84.91934 13449 ft 368 kts 126°
2026-05-05 02:27 10.20687 -84.89851 13145 ft 366 kts 126°
2026-05-05 02:27 10.19682 -84.88474 12932 ft 366 kts 126°
2026-05-05 02:28 10.18171 -84.86408 12650 ft 364 kts 126°
2026-05-05 02:28 10.16663 -84.84346 12361 ft 363 kts 126°
2026-05-05 02:28 10.15177 -84.82315 12069 ft 353 kts 126°
2026-05-05 02:28 10.13741 -84.80354 11785 ft 338 kts 126°
2026-05-05 02:29 10.12365 -84.78476 11490 ft 325 kts 126°
2026-05-05 02:29 10.11043 -84.76672 11208 ft 312 kts 126°
2026-05-05 02:29 10.09774 -84.74940 10917 ft 300 kts 126°
2026-05-05 02:29 10.08548 -84.73267 10651 ft 293 kts 126°
2026-05-05 02:30 10.07322 -84.71594 10375 ft 296 kts 126°
2026-05-05 02:30 10.06096 -84.69922 10099 ft 294 kts 126°
2026-05-05 02:30 10.04896 -84.68284 9821 ft 292 kts 126°
2026-05-05 02:30 10.03686 -84.66632 9528 ft 291 kts 126°
2026-05-05 02:31 10.02481 -84.64990 9228 ft 289 kts 126°
2026-05-05 02:31 10.01283 -84.63355 8920 ft 288 kts 126°
2026-05-05 02:31 10.00216 -84.61699 8631 ft 285 kts 113°
2026-05-05 02:31 9.99803 -84.59752 8349 ft 284 kts 89°
2026-05-05 02:32 10.00219 -84.57818 8084 ft 281 kts 64°
2026-05-05 02:32 10.01219 -84.56130 7950 ft 280 kts 68°
2026-05-05 02:32 10.01542 -84.54195 8295 ft 281 kts 93°
2026-05-05 02:32 10.01034 -84.52274 8679 ft 288 kts 114°
2026-05-05 02:33 9.99873 -84.50637 8523 ft 287 kts 134°
2026-05-05 02:33 9.98218 -84.49557 8179 ft 289 kts 158°
2026-05-05 02:33 9.96274 -84.49104 7962 ft 286 kts 167°
2026-05-05 02:33 9.94288 -84.48782 8003 ft 289 kts 170°
2026-05-05 02:34 9.92304 -84.48441 8059 ft 289 kts 168°